"2009-02-22 00:00:00",651226,6.832,167.7,9.26,1.205,8.54,102.0538,4.541,5.685,24.67,0,110,13.41,5.31,129.7
"2009-02-22 00:00:30",651227,6.236,165.4,5.448,1.19,6.702,102.0561,4.546,5.662,24.6,0,110,13.41,5.31,127.4
"2009-02-22 00:01:00",651228,4.699,157.1,6.021,0.234,4.156,102.0544,4.542,5.532,24.47,0,110,13.45,5.31,119.1
"2009-02-22 00:01:30",651229,4.119,150.8,1.579,0.085,4.044,102.0582,4.552,5.426,24.31,0,110,13.45,5.32,112.8
"2009-02-22 00:02:00",651230,6.205,154,5.181,1.373,7.273,102.0531,4.539,5.567,24.44,0,110,13.41,5.31,116.0
"2009-02-22 00:02:30",651231,6.633,154.4,7.668,1.187,8.45,102.0415,4.509,5.717,24.58,0,110,13.41,5.28,116.4
"2009-02-22 00:03:00",651232,7.318,163.1,3.412,0.74,9.17,102.036,4.495,5.668,24.56,0,109.9,13.41,5.26,125.1
"2009-02-22 00:03:30",651233,6.151,158.1,5.7,1.141,7.407,102.0312,4.483,5.603,24.54,0,110,13.41,5.25,120.1
"2009-02-22 00:04:00",651234,6.205,155.2,7.328,1.014,6.018,102.0326,4.487,5.448,24.4,0,109.9,13.41,5.25,117.2
"2009-02-22 00:04:30",651235,5.371,149.4,2.934,0.385,4.081,102.0332,4.488,5.365,24.32,0,109.9,13.45,5.26,111.4
"2009-02-22 00:05:00",651236,6.431,157.5,6.198,1.351,7.407,102.0329,4.487,5.563,24.52,0,109.9,13.41,5.25,119.5
"2009-02-22 00:05:30",651237,6.949,158.3,6.361,1.238,8.51,102.0312,4.483,5.6,24.6,0,109.9,13.41,5.25,120.3
"2009-02-22 00:06:00",651238,7.577,158.6,3.705,0.688,9.2,102.0225,4.461,5.669,24.68,0,109.9,13.41,5.23,120.6
"2009-02-22 00:06:30",651239,6.874,156.9,5.583,1.153,7.866,102.0137,4.438,5.596,24.71,0,109.9,13.41,5.21,118.9
"2009-02-22 00:07:00",651240,6.191,153.4,5.242,1.226,6.262,102.0019,4.408,5.492,24.63,0,109.9,13.41,5.18,115.4
"2009-02-22 00:07:30",651241,5.234,150.1,1.192,0.129,4.181,101.9993,4.401,5.348,24.54,0,109.9,13.45,5.17,112.1
"2009-02-22 00:08:00",651242,6.55,161.2,6.855,1.225,7.722,101.9993,4.401,5.532,24.69,0,109.9,13.41,5.17,123.2
"2009-02-22 00:08:30",651243,6.798,162.4,5.62,1.189,8.35,101.9993,4.401,5.579,24.79,0,109.9,13.42,5.17,124.4
"2009-02-22 00:09:00",651244,7.177,164,4.338,0.553,9.26,101.9993,4.401,5.65,24.95,0,109.9,13.42,5.17,126.0
"2009-02-22 00:09:30",651245,6.571,163.6,5.094,1.076,8.06,101.9993,4.401,5.601,24.91,0,109.9,13.41,5.17,125.6
"2009-02-22 00:10:00",651246,4.97,153.1,5.769,1.014,4.713,101.9993,4.401,5.356,24.66,0,109.9,13.41,5.17,115.1
"2009-02-22 00:10:30",651247,4.607,155.8,3.094,0.513,4.002,101.9993,4.401,5.305,24.63,0,109.9,13.41,5.17,117.8
"2009-02-22 00:11:00",651248,5.555,163.4,8.07,1.239,6.349,101.9993,4.401,5.468,24.84,0,109.9,13.41,5.17,125.4
"2009-02-22 00:11:30",651249,6.563,165.6,5.993,1.17,7.603,101.9993,4.401,5.511,24.97,0,109.9,13.41,5.17,127.6
"2009-02-22 00:12:00",651250,6.629,163,5.307,1.085,8.53,101.9993,4.401,5.588,25.08,0,109.9,13.41,5.17,125.0
"2009-02-22 00:12:30",651251,6.832,163.1,5.186,0.913,8.53,101.9993,4.401,5.588,25.16,0,110,13.41,5.17,125.1
"2009-02-22 00:13:00",651252,6.138,153.5,7.023,1.272,6.534,101.9988,4.4,5.476,25.05,0,109.9,13.41,5.17,115.5
"2009-02-22 00:13:30",651253,5.04,149.6,1.558,0.117,4.107,101.9971,4.396,5.296,24.88,0,109.9,13.41,5.16,111.6
"2009-02-22 00:14:00",651254,6.257,154.4,7.506,1.221,6.208,101.9914,4.381,5.437,25.1,0,109.9,13.41,5.15,116.4
"2009-02-22 00:14:30",651255,5.97,151.5,6.106,1.158,5.902,101.9852,4.365,5.343,25.08,0,110,13.42,5.13,113.5
"2009-02-22 00:15:00",651256,6.827,155.2,5.92,1.177,8.13,101.9762,4.342,5.568,25.4,0,109.9,13.42,5.11,117.2
"2009-02-22 00:15:30",651257,7.347,155.8,5.081,0.907,8.87,101.9747,4.339,5.573,25.39,0,109.9,13.42,5.11,117.8
"2009-02-22 00:16:00",651258,7.125,157,4.457,1.021,8.58,101.968,4.321,5.539,25.41,0,109.9,13.42,5.09,119.0
"2009-02-22 00:16:30",651259,5.512,150.9,4.223,0.943,5.521,101.9654,4.315,5.42,25.32,0,109.9,13.42,5.08,112.9
"2009-02-22 00:17:00",651260,6.092,150.3,4.029,1.212,5.12,101.966,4.316,5.285,25.18,0,109.9,13.42,5.08,112.3
"2009-02-22 00:17:30",651261,5.264,149.3,4.301,0.854,5.513,101.9657,4.316,5.381,25.33,0,109.9,13.42,5.08,111.3
"2009-02-22 00:18:00",651262,6.531,154.2,6.693,1.251,7.276,101.9666,4.318,5.417,25.39,0,109.9,13.42,5.09,116.2
"2009-02-22 00:18:30",651263,7.257,158.7,5.3,0.907,9.17,101.9692,4.324,5.537,25.42,0,109.9,13.42,5.09,120.7
"2009-02-22 00:19:00",651264,6.98,158.1,5.137,1.033,8.85,101.9706,4.328,5.541,25.42,0,109.9,13.42,5.10,120.1
"2009-02-22 00:19:30",651265,6.784,158.9,6.845,1.073,7.786,101.9707,4.328,5.473,25.39,0,109.9,13.42,5.10,120.9
"2009-02-22 00:20:00",651266,6.458,155.7,5.341,1.337,6.201,101.967,4.319,5.281,25.16,0,109.9,13.42,5.09,117.7
"2009-02-22 00:20:30",651267,5.07,150.1,1.234,0.102,4.076,101.962,4.306,5.291,25.18,0,109.9,13.46,5.07,112.1
"2009-02-22 00:21:00",651268,6.843,159.1,6.203,1.112,7.938,101.9575,4.295,5.399,25.31,0,109.9,13.42,5.06,121.1
"2009-02-22 00:21:30",651269,7.416,162.8,3.388,0.7,9.41,101.9565,4.292,5.502,25.51,0,109.9,13.42,5.06,124.8
"2009-02-22 00:22:00",651270,7.453,163.3,4.104,0.732,9.27,101.9542,4.286,5.525,25.55,0,109.9,13.43,5.05,125.3
"2009-02-22 00:22:30",651271,7.276,161.3,5.283,1.189,8.27,101.9548,4.288,5.424,25.48,0,109.9,13.42,5.05,123.3
"2009-02-22 00:23:00",651272,6.887,156.3,6.69,1.215,6.96,101.9563,4.292,5.323,25.25,0,109.9,13.42,5.06,118.3
"2009-02-22 00:23:30",651273,6.055,152.1,5.725,1.128,5.285,101.9583,4.297,5.208,25.14,0,109.9,13.42,5.06,114.1
"2009-02-22 00:24:00",651274,6.376,155.9,5.86,1.277,6.683,101.9601,4.301,5.378,25.35,0,109.9,13.43,5.07,117.9
"2009-02-22 00:24:30",651275,6.48,161.2,6.305,1.158,8.16,101.9606,4.303,5.432,25.5,0,109.9,13.43,5.07,123.2
"2009-02-22 00:25:00",651276,6.491,160.8,6.019,1.346,7.664,101.965,4.314,5.418,25.54,0,109.9,13.43,5.08,122.8
"2009-02-22 00:25:30",651277,7.183,162.4,6.07,1.046,8.17,101.9613,4.304,5.426,25.53,0,109.9,13.43,5.07,124.4
"2009-02-22 00:26:00",651278,6.245,155.9,6.676,1.242,6.592,101.9579,4.296,5.348,25.3,0,109.9,13.43,5.06,117.9
"2009-02-22 00:26:30",651279,6.305,155,6.736,1.282,6.186,101.9523,4.281,5.204,25.2,0,109.9,13.42,5.05,117.0
"2009-02-22 00:27:00",651280,6.554,162.6,7.507,1.215,7.647,101.9415,4.254,5.385,25.54,0,109.9,13.43,5.02,124.6
"2009-02-22 00:27:30",651281,5.995,157.8,7.034,1.202,6.284,101.9345,4.236,5.34,25.59,0,109.9,13.43,5.00,119.8
"2009-02-22 00:28:00",651282,6.262,159.6,6.213,1.233,6.925,101.9331,4.232,5.358,25.53,0,109.9,13.43,5.00,121.6
"2009-02-22 00:28:30",651283,6.938,164.6,5.647,1.17,8.03,101.9322,4.23,5.385,25.66,0,109.9,13.43,5.00,126.6
"2009-02-22 00:29:00",651284,6.392,160.8,6.541,1.229,6.923,101.9322,4.23,5.367,25.71,0,109.9,13.43,5.00,122.8
"2009-02-22 00:29:30",651285,6.782,164.1,6.056,1.215,7.284,101.9322,4.23,5.231,25.56,0,109.9,13.43,5.00,126.1
"2009-02-22 00:30:00",651286,6.934,166.5,5.936,1.126,7.812,101.9322,4.23,5.404,25.68,0,109.9,13.43,5.00,128.5
"2009-02-22 00:30:30",651287,5.348,161.1,4.027,0.863,5.184,101.9322,4.23,5.208,25.6,0,109.9,13.43,5.00,123.1
"2009-02-22 00:31:00",651288,6.498,164.5,6.958,1.281,6.897,101.9322,4.23,5.317,25.71,0,109.9,13.43,5.00,126.5
"2009-02-22 00:31:30",651289,7.166,168.8,5.409,1.091,8.19,101.9322,4.23,5.288,25.7,0,109.8,13.43,5.00,130.8
"2009-02-22 00:32:00",651290,6.714,164.8,6.536,1.279,7.608,101.9305,4.226,5.402,25.69,0,109.8,13.44,4.99,126.8
"2009-02-22 00:32:30",651291,7.308,167.3,5.951,1.165,8.18,101.9223,4.205,5.31,25.52,0,109.9,13.44,4.97,129.3
"2009-02-22 00:33:00",651292,6.933,165.4,6.65,1.192,6.834,101.9175,4.193,5.269,25.49,0,109.8,13.44,4.96,127.4
"2009-02-22 00:33:30",651293,6.126,158.8,4.119,0.97,5.418,101.9153,4.187,5.25,25.45,0,109.8,13.44,4.95,120.8
"2009-02-22 00:34:00",651294,7.608,164.5,5.858,1.232,7.451,101.9099,4.173,5.227,25.39,0,109.8,13.44,4.94,126.5
"2009-02-22 00:34:30",651295,7.713,164.1,6.49,1.151,8.22,101.8994,4.146,5.357,25.55,0,109.8,13.44,4.91,126.1
"2009-02-22 00:35:00",651296,7.622,166.5,5.495,1.135,8.55,101.8997,4.147,5.342,25.56,0,109.8,13.44,4.91,128.5
"2009-02-22 00:35:30",651297,8.27,168.7,2.78,0.644,9.26,101.8989,4.145,5.379,25.6,0,109.8,13.44,4.91,130.7
"2009-02-22 00:36:00",651298,7.241,162.5,5.981,1.261,7.01,101.9,4.148,5.265,25.47,0,109.8,13.44,4.91,124.5
"2009-02-22 00:36:30",651299,6.277,155.3,4.584,0.73,5.162,101.9046,4.16,5.218,25.43,0,109.8,13.44,4.93,117.3
"2009-02-22 00:37:00",651300,7.941,163.5,5.793,1.129,7.483,101.9078,4.168,5.202,25.38,0,109.8,13.44,4.93,125.5
"2009-02-22 00:37:30",651301,8.47,166.7,4.635,0.942,8.79,101.9093,4.172,5.249,25.5,0,109.8,13.44,4.94,128.7
"2009-02-22 00:38:00",651302,7.956,162.9,5.605,1.228,8.47,101.9051,4.161,5.345,25.57,0,109.8,13.45,4.93,124.9
"2009-02-22 00:38:30",651303,8.32,161.5,5.307,0.968,8.84,101.9009,4.15,5.35,25.49,0,109.8,13.45,4.92,123.5
"2009-02-22 00:39:00",651304,7.91,162.8,5.327,1.182,8.28,101.8933,4.131,5.331,25.53,0,109.8,13.45,4.90,124.8
"2009-02-22 00:39:30",651305,7.851,161.9,5.605,1.239,7.766,101.8982,4.143,5.305,25.55,0,109.8,13.45,4.91,123.9
"2009-02-22 00:40:00",651306,7.014,157.7,5.545,1.214,5.536,101.902,4.153,5.071,25.38,0,109.8,13.45,4.92,119.7
"2009-02-22 00:40:30",651307,6.947,160.8,5.422,1.098,6.099,101.9037,4.157,5.196,25.59,0,109.8,13.45,4.92,122.8
"2009-02-22 00:41:00",651308,8.38,169.1,4.313,0.954,9.35,101.9029,4.155,5.304,25.81,0,109.8,13.45,4.92,131.1
"2009-02-22 00:41:30",651309,8.71,168.9,4.011,0.553,9.4,101.9018,4.152,5.352,25.85,0,109.8,13.45,4.92,130.9
"2009-02-22 00:42:00",651310,8.57,169.5,4.209,0.679,9.42,101.9004,4.149,5.35,25.82,0,109.8,13.45,4.92,131.5
"2009-02-22 00:42:30",651311,7.952,168,5.057,1.06,8.43,101.8989,4.145,5.264,25.75,0,109.8,13.44,4.91,130.0
"2009-02-22 00:43:00",651312,6.393,158.6,4.29,0.721,4.952,101.8989,4.145,5.144,25.64,0,109.8,13.44,4.91,120.6
"2009-02-22 00:43:30",651313,7.197,161.7,6.303,1.254,6.271,101.8989,4.145,5.082,25.49,0,109.8,13.44,4.91,123.7
"2009-02-22 00:44:00",651314,7.794,164.8,5.928,1.175,8.33,101.8989,4.145,5.259,25.64,0,109.8,13.44,4.91,126.8
"2009-02-22 00:44:30",651315,8.09,166.9,5.069,1.009,9.39,101.8989,4.145,5.299,25.69,0,109.8,13.45,4.91,128.9
"2009-02-22 00:45:00",651316,8.3,167,4.131,0.789,9.34,101.8989,4.145,5.334,25.79,0,109.8,13.45,4.91,129.0
"2009-02-22 00:45:30",651317,8.58,167.4,4.035,0.477,9.44,101.8989,4.145,5.342,25.8,0,109.8,13.45,4.91,129.4
"2009-02-22 00:46:00",651318,7.962,165.6,5.528,1.062,7.916,101.8989,4.145,5.167,25.66,0,109.8,13.45,4.91,127.6
"2009-02-22 00:46:30",651319,6.335,158,3.47,0.677,4.705,101.8987,4.144,5.129,25.66,0,109.8,13.45,4.91,120.0
"2009-02-22 00:47:00",651320,6.906,162.3,6.047,1.161,6.277,101.8972,4.141,5.063,25.6,0,109.8,13.45,4.91,124.3
"2009-02-22 00:47:30",651321,7.757,166,5.065,1.153,8.45,101.8939,4.132,5.266,25.8,0,109.8,13.45,4.90,128.0
"2009-02-22 00:48:00",651322,8.26,168,4.739,0.698,9.4,101.8924,4.129,5.337,25.87,0,109.8,13.46,4.89,130.0
"2009-02-22 00:48:30",651323,8.33,167.9,3.347,0.625,9.76,101.8913,4.126,5.319,25.85,0,109.8,13.46,4.89,129.9
"2009-02-22 00:49:00",651324,7.894,167.6,5.807,1.133,8.32,101.8899,4.122,5.219,25.84,0,109.8,13.46,4.89,129.6
"2009-02-22 00:49:30",651325,6.958,162.1,6.789,1.243,6.387,101.8896,4.121,5.155,25.73,0,109.8,13.46,4.89,124.1
"2009-02-22 00:50:00",651326,7.056,160,6.044,1.246,6.205,101.8865,4.113,5.094,25.66,0,109.8,13.46,4.88,122.0
"2009-02-22 00:50:30",651327,7.723,163.1,6.589,1.103,8.24,101.8769,4.089,5.231,25.74,0,109.8,13.46,4.86,125.1
"2009-02-22 00:51:00",651328,7.956,165.8,4.672,0.925,8.79,101.8741,4.082,5.247,25.78,0,109.8,13.46,4.85,127.8
"2009-02-22 00:51:30",651329,7.808,166.8,5.898,1.017,8.39,101.8673,4.064,5.235,25.8,0,109.8,13.46,4.83,128.8
"2009-02-22 00:52:00",651330,7.477,165,6.43,1.222,7.749,101.8656,4.06,5.271,25.84,0,109.8,13.47,4.83,127.0
"2009-02-22 00:52:30",651331,8.11,168.4,5.323,1.038,8.54,101.865,4.059,5.207,25.79,0,109.8,13.47,4.82,130.4
"2009-02-22 00:53:00",651332,7.797,166.2,6.609,1.181,7.394,101.8668,4.063,5.185,25.78,0,109.8,13.47,4.83,128.2
"2009-02-22 00:53:30",651333,7.392,164.4,6.433,1.241,7.831,101.8659,4.061,5.27,25.85,0,109.8,13.47,4.83,126.4
"2009-02-22 00:54:00",651334,7.984,165.6,6.373,1.078,8.13,101.8711,4.074,5.25,25.79,0,109.8,13.47,4.84,127.6
"2009-02-22 00:54:30",651335,7.957,166.1,5.183,1.14,8.44,101.8714,4.075,5.215,25.78,0,109.8,13.47,4.84,128.1
"2009-02-22 00:55:00",651336,7.781,164.9,6.645,1.066,7.875,101.8768,4.089,5.187,25.81,0,109.8,13.47,4.85,126.9
"2009-02-22 00:55:30",651337,7.794,167.1,5.706,1.143,8.55,101.8826,4.103,5.261,25.85,0,109.8,13.47,4.87,129.1
"2009-02-22 00:56:00",651338,7.778,166.6,5.464,1.087,8.26,101.8849,4.109,5.246,25.8,0,109.8,13.47,4.88,128.6
"2009-02-22 00:56:30",651339,6.712,161.7,6.234,1.165,6.163,101.8863,4.113,5.162,25.7,0,109.8,13.47,4.88,123.7
"2009-02-22 00:57:00",651340,6.775,162.1,5.711,1.161,6.187,101.8886,4.119,5.057,25.5,0,109.8,13.47,4.89,124.1
"2009-02-22 00:57:30",651341,7.156,166.5,6.834,1.206,7.731,101.8915,4.126,5.262,25.65,0,109.8,13.47,4.89,128.5
"2009-02-22 00:58:00",651342,7.771,168.6,5.355,1.045,8.57,101.8915,4.126,5.21,25.56,0,109.8,13.47,4.89,130.6
"2009-02-22 00:58:30",651343,7.933,169.3,4.818,0.859,9.02,101.8879,4.117,5.256,25.59,0,109.8,13.47,4.88,131.3
"2009-02-22 00:59:00",651344,7.446,168.5,5.191,1.141,8.38,101.8837,4.106,5.217,25.62,0,109.8,13.47,4.87,130.5
"2009-02-22 00:59:30",651345,7.346,165.9,6.319,1.184,7.544,101.8784,4.093,5.151,25.54,0,109.8,13.47,4.86,127.9
"2009-02-22 01:00:00",651346,6.266,159.7,4.754,0.926,5.644,101.8804,4.098,5.144,25.48,0,109.7,13.47,4.86,121.7
"2009-02-22 01:00:30",651347,7.597,165.1,6.027,1.161,7.952,101.8727,4.078,5.147,25.63,0,109.8,13.47,4.84,127.1
"2009-02-22 01:01:00",651348,7.674,162.9,6.126,1.172,8.07,101.8654,4.059,5.207,26.36,0,109.7,13.47,4.83,124.9
"2009-02-22 01:01:30",651349,7.692,165.5,4.914,0.955,8.86,101.8654,4.059,5.241,26.62,0,109.8,13.47,4.83,127.5
"2009-02-22 01:02:00",651350,7.778,168.5,4.618,0.868,9.14,101.8617,4.05,5.203,26.05,0,109.7,13.47,4.82,130.5
"2009-02-22 01:02:30",651351,7.008,164.9,6.296,1.204,7.094,101.8555,4.034,5.163,25.97,0,109.7,13.47,4.80,126.9
"2009-02-22 01:03:00",651352,6.684,163.9,6.76,1.216,6.64,101.8498,4.02,5.078,26.08,0,109.7,13.47,4.79,125.9
"2009-02-22 01:03:30",651353,6.39,162,5.528,1.139,5.816,101.8462,4.01,5.021,26.14,0,109.7,13.47,4.78,124.0
"2009-02-22 01:04:00",651354,7.36,168.8,6.155,1.195,7.993,101.8394,3.993,5.163,26.47,0,109.7,13.47,4.76,130.8
"2009-02-22 01:04:30",651355,7.935,170.8,4.522,0.864,9.01,101.832,3.974,5.185,26.69,0,109.7,13.48,4.74,132.8
"2009-02-22 01:05:00",651356,8.06,172.5,4.526,0.755,9.22,101.8317,3.974,5.215,26.76,0,109.7,13.48,4.74,134.5
"2009-02-22 01:05:30",651357,7.783,171.2,5.64,1.056,8.26,101.8317,3.974,5.139,26.77,0,109.7,13.48,4.74,133.2
"2009-02-22 01:06:00",651358,6.703,166.1,5.813,1.212,5.797,101.8317,3.974,4.934,26.61,0,109.7,13.48,4.74,128.1
"2009-02-22 01:06:30",651359,5.861,163.8,3.473,0.496,5.005,101.8317,3.974,5.001,26.68,0,109.7,13.48,4.74,125.8
"2009-02-22 01:07:00",651360,7.717,173,5.707,1.075,8.19,101.8317,3.974,5.078,26.74,0,109.7,13.48,4.74,135.0
"2009-02-22 01:07:30",651361,7.869,173.9,4.922,0.923,9.08,101.8317,3.974,5.117,26.93,0,109.7,13.48,4.74,135.9
"2009-02-22 01:08:00",651362,7.808,172.2,5.772,1.071,9.2,101.8317,3.974,5.158,27.08,0,109.7,13.48,4.74,134.2
"2009-02-22 01:08:30",651363,7.913,173.9,4.818,0.893,9.11,101.8317,3.974,5.153,27.25,0,109.7,13.48,4.74,135.9
"2009-02-22 01:09:00",651364,6.957,169.4,6.386,1.249,6.881,101.8317,3.974,5.107,27.27,0,109.7,13.48,4.74,131.4
"2009-02-22 01:09:30",651365,6.939,168,6.453,1.247,5.777,101.8317,3.974,4.907,27.19,0,109.7,13.48,4.74,130.0
"2009-02-22 01:10:00",651366,6.91,167.9,6.479,1.231,6.377,101.8317,3.974,5.012,27.43,0,109.7,13.48,4.74,129.9
"2009-02-22 01:10:30",651367,7.258,169,6.461,1.212,7.172,101.8317,3.974,5.075,27.72,0,109.7,13.48,4.74,131.0
"2009-02-22 01:11:00",651368,7.815,174,4.461,1.129,8.87,101.8306,3.971,5.134,27.78,0,109.7,13.48,4.74,136.0
"2009-02-22 01:11:30",651369,7.99,174.8,4.403,0.951,9.09,101.8222,3.949,5.13,27.83,0,109.7,13.48,4.72,136.8
"2009-02-22 01:12:00",651370,8.11,176.1,4.559,0.782,8.97,101.8176,3.938,5.156,27.69,0,109.7,13.48,4.70,138.1
"2009-02-22 01:12:30",651371,6.904,171.6,6.41,1.205,6.924,101.8157,3.933,5.071,27.64,0,109.7,13.48,4.70,133.6
"2009-02-22 01:13:00",651372,6.19,168.5,4.083,0.853,5.034,101.8159,3.933,4.972,27.54,0,109.7,13.48,4.70,130.5
"2009-02-22 01:13:30",651373,7.523,174.5,6.488,1.106,7.188,101.8166,3.935,4.887,27.44,0,109.7,13.48,4.70,136.5
"2009-02-22 01:14:00",651374,7.644,175.1,6.254,1.181,8.3,101.8106,3.92,5.095,27.81,0,109.7,13.49,4.69,137.1
"2009-02-22 01:14:30",651375,8.2,177.7,4.494,0.961,9.28,101.8101,3.918,5.124,28.03,0,109.7,13.49,4.68,139.7
"2009-02-22 01:15:00",651376,8.85,176.8,4.912,0.383,9.41,101.8062,3.908,5.128,28.31,0,109.7,13.48,4.67,138.8
"2009-02-22 01:15:30",651377,8.26,176.2,5.554,1.123,8.35,101.8076,3.912,5.061,28.3,0,109.7,13.48,4.68,138.2
"2009-02-22 01:16:00",651378,7.226,170.4,5.798,1.132,6.075,101.8073,3.911,4.924,28.19,0,109.7,13.49,4.68,132.4
"2009-02-22 01:16:30",651379,7.283,172.2,6.356,1.22,6.786,101.8091,3.916,5.021,28.34,0,109.7,13.49,4.68,134.2
"2009-02-22 01:17:00",651380,8.09,176.5,6.071,1.12,7.967,101.8051,3.906,5.019,28.41,0,109.7,13.49,4.67,138.5
"2009-02-22 01:17:30",651381,7.834,177.5,5.657,1.211,8.47,101.8015,3.896,5.059,28.31,0,109.7,13.49,4.66,139.5
"2009-02-22 01:18:00",651382,7.967,177.2,5.801,1.136,8.67,101.7995,3.891,5.042,28.4,0,109.7,13.49,4.66,139.2
"2009-02-22 01:18:30",651383,7.931,178,5.412,1.041,8.37,101.7959,3.882,5.028,28.4,0,109.7,13.49,4.65,140.0
"2009-02-22 01:19:00",651384,7.302,174.7,6.269,1.222,7.416,101.7973,3.886,4.968,28.42,0,109.7,13.49,4.65,136.7
"2009-02-22 01:19:30",651385,7.312,175.7,6.259,1.216,7.229,101.7981,3.888,5,28.5,0,109.7,13.49,4.65,137.7
"2009-02-22 01:20:00",651386,7.81,177.4,6.341,1.147,8.07,101.8053,3.906,5.026,28.48,0,109.7,13.49,4.67,139.4
"2009-02-22 01:20:30",651387,8.14,179.1,5.251,1.106,8.16,101.8101,3.918,4.99,28.32,0,109.7,13.49,4.68,141.1
"2009-02-22 01:21:00",651388,7.824,176.6,5.843,1.254,7.508,101.809,3.915,5.025,28.26,0,109.7,13.49,4.68,138.6
"2009-02-22 01:21:30",651389,8.4,179.7,5.375,1.061,8.75,101.8084,3.914,5.021,28.17,0,109.7,13.5,4.68,141.7
"2009-02-22 01:22:00",651390,8.67,181.3,4.723,0.766,8.83,101.8132,3.926,5.003,28.06,0,109.7,13.5,4.69,143.3
"2009-02-22 01:22:30",651391,8.38,180.7,5.266,1.057,8.46,101.8161,3.934,5.039,28.08,0,109.7,13.5,4.70,142.7
"2009-02-22 01:23:00",651392,8.28,181.4,5.304,1.09,8.34,101.8218,3.948,4.996,28.07,0,109.7,13.5,4.71,143.4
"2009-02-22 01:23:30",651393,7.565,177.7,6.302,1.245,6.56,101.824,3.954,4.899,27.93,0,109.7,13.5,4.72,139.7
"2009-02-22 01:24:00",651394,7.854,179.5,6.469,1.209,7.284,101.8249,3.956,4.979,28.12,0,109.7,13.5,4.72,141.5
"2009-02-22 01:24:30",651395,8.22,180.5,5.375,1.056,8.45,101.824,3.954,5.035,28.21,0,109.7,13.5,4.72,142.5
"2009-02-22 01:25:00",651396,8.58,183.1,4.031,0.794,9.14,101.8237,3.953,5.048,28.21,0,109.7,13.5,4.72,145.1
"2009-02-22 01:25:30",651397,8.24,178.5,6.133,1.055,8.38,101.8201,3.944,5.049,28.27,0,109.7,13.5,4.71,140.5
"2009-02-22 01:26:00",651398,7.831,177,6.629,1.222,7.463,101.8015,3.896,5.009,28.23,0,109.7,13.5,4.66,139.0
"2009-02-22 01:26:30",651399,7.382,174.1,6.644,1.299,6.298,101.7935,3.876,4.928,28.2,0,109.7,13.5,4.64,136.1
"2009-02-22 01:27:00",651400,7.596,176.3,6.98,1.243,6.559,101.795,3.88,4.882,28.19,0,109.7,13.5,4.65,138.3
"2009-02-22 01:27:30",651401,8.13,180.5,6.083,1.179,8.44,101.7967,3.884,5.009,28.29,0,109.7,13.5,4.65,142.5
"2009-02-22 01:28:00",651402,8.78,185.1,2.675,0.675,9.46,101.7958,3.882,5.097,28.34,0,109.7,13.5,4.65,147.1
"2009-02-22 01:28:30",651403,8.89,184.8,2.807,0.757,9.28,101.7984,3.889,5.064,28.31,0,109.7,13.5,4.65,146.8
"2009-02-22 01:29:00",651404,7.875,179,5.965,1.186,6.669,101.7984,3.889,4.987,28.18,0,109.7,13.5,4.65,141.0
"2009-02-22 01:29:30",651405,7.744,180,6.424,1.267,6.352,101.7979,3.887,4.832,27.93,0,109.7,13.5,4.65,142.0
"2009-02-22 01:30:00",651406,7.952,179.9,6.731,1.23,6.795,101.7981,3.888,4.936,28.02,0,109.7,13.5,4.65,141.9
"2009-02-22 01:30:30",651407,8.37,182.2,5.953,1.093,8.36,101.7984,3.889,5.037,28.08,0,109.7,13.5,4.65,144.2
"2009-02-22 01:31:00",651408,8.85,182.5,3.692,0.668,9.6,101.7984,3.889,5.1,28.1,0,109.7,13.5,4.65,144.5
"2009-02-22 01:31:30",651409,8.94,182.1,4.543,0.509,9.7,101.7984,3.889,5.086,28.07,0,109.7,13.5,4.65,144.1
"2009-02-22 01:32:00",651410,8.27,180.4,5.877,1.195,8.42,101.7984,3.889,5.091,28.02,0,109.7,13.5,4.65,142.4
"2009-02-22 01:32:30",651411,7.439,175.8,5.865,1.146,5.78,101.7984,3.889,4.812,27.72,0,109.7,13.5,4.65,137.8
"2009-02-22 01:33:00",651412,7.663,177.3,6.47,1.238,6.488,101.7984,3.889,4.882,27.73,0,109.7,13.5,4.65,139.3
"2009-02-22 01:33:30",651413,7.961,179.6,6.466,1.191,7.524,101.7984,3.889,5.039,27.9,0,109.7,13.5,4.65,141.6
"2009-02-22 01:34:00",651414,8.48,182.2,5.207,0.957,9.07,101.7984,3.889,5.058,27.91,0,109.7,13.5,4.65,144.2
"2009-02-22 01:34:30",651415,8.6,183.4,4.979,0.864,9.21,101.7984,3.889,5.046,27.91,0,109.7,13.5,4.65,145.4
"2009-02-22 01:35:00",651416,8.59,185.3,5.276,0.938,8.62,101.7984,3.889,5.025,27.86,0,109.7,13.5,4.65,147.3
"2009-02-22 01:35:30",651417,7.778,182,6.165,1.273,7.146,101.7984,3.889,4.965,27.7,0,109.7,13.5,4.65,144.0
"2009-02-22 01:36:00",651418,7.173,182.7,6.662,1.149,6.144,101.799,3.89,4.916,27.61,0,109.7,13.5,4.66,144.7
"2009-02-22 01:36:30",651419,7.263,184.2,5.686,1.278,6.649,101.8225,3.95,5.002,27.53,0,109.7,13.5,4.72,146.2
"2009-02-22 01:37:00",651420,7.725,183.5,5.982,1.197,7.321,101.8324,3.975,5.068,27.61,0,109.7,13.5,4.74,145.5
"2009-02-22 01:37:30",651421,8.21,187,4.794,1.08,8.45,101.8324,3.975,5.066,27.56,0,109.7,13.5,4.74,149.0
"2009-02-22 01:38:00",651422,8.29,184.5,5.73,1.003,8.12,101.8324,3.975,5.101,27.53,0,109.7,13.5,4.74,146.5
"2009-02-22 01:38:30",651423,8.71,185.8,5.525,1.079,8.19,101.8324,3.975,5.069,27.49,0,109.7,13.5,4.74,147.8
"2009-02-22 01:39:00",651424,8.65,185.5,5.725,1.163,7.574,101.8324,3.975,5,27.38,0,109.7,13.5,4.74,147.5
"2009-02-22 01:39:30",651425,8.1,181.5,5.839,1.243,7.09,101.8324,3.975,5.044,27.49,0,109.7,13.5,4.74,143.5
"2009-02-22 01:40:00",651426,8.64,182.2,5.515,1.081,8.01,101.8324,3.975,5.036,27.53,0,109.7,13.5,4.74,144.2
"2009-02-22 01:40:30",651427,8.45,178.6,5.872,1.262,7.068,101.825,3.956,5.025,27.54,0,109.7,13.51,4.72,140.6
"2009-02-22 01:41:00",651428,9.01,180,5.985,1.157,8.43,101.8007,3.894,5.043,27.56,0,109.7,13.5,4.66,142.0
"2009-02-22 01:41:30",651429,8.79,180.4,4.952,1.154,8.73,101.7984,3.889,5.066,27.65,0,109.7,13.51,4.65,142.4
"2009-02-22 01:42:00",651430,9.08,179.7,6.275,0.991,8.95,101.7984,3.889,5.103,27.69,0,109.7,13.51,4.65,141.7
"2009-02-22 01:42:30",651431,9.04,178.8,5.65,1.128,8.08,101.7959,3.882,5.02,27.64,0,109.7,13.5,4.65,140.8
"2009-02-22 01:43:00",651432,8.87,176.4,6.156,1.154,7.204,101.7832,3.85,4.912,27.54,0,109.7,13.5,4.62,138.4
"2009-02-22 01:43:30",651433,8.21,174.4,6.03,1.219,6.772,101.7682,3.811,4.969,27.65,0,109.7,13.5,4.58,136.4
"2009-02-22 01:44:00",651434,8.68,179.7,5.566,1.107,8.42,101.7645,3.802,4.985,27.69,0,109.7,13.51,4.57,141.7
"2009-02-22 01:44:30",651435,8.61,181.6,6.436,1.08,8.45,101.7645,3.802,4.988,27.71,0,109.7,13.51,4.57,143.6
"2009-02-22 01:45:00",651436,8.43,182.7,5.627,1.134,8.28,101.7648,3.803,5.021,27.82,0,109.7,13.51,4.57,144.7
"2009-02-22 01:45:30",651437,8.52,185.3,5.377,1.013,8.01,101.7648,3.803,4.954,27.7,0,109.7,13.51,4.57,147.3
"2009-02-22 01:46:00",651438,8.14,187.8,6.286,1.095,7.282,101.7809,3.844,4.872,27.33,0,109.7,13.51,4.61,149.8
"2009-02-22 01:46:30",651439,7.395,184.7,5.718,1.265,6.305,101.7981,3.888,4.964,27.2,0,109.7,13.51,4.65,146.7
"2009-02-22 01:47:00",651440,7.484,182.7,6.974,1.285,6.397,101.7993,3.891,4.917,27.34,0,109.7,13.51,4.66,144.7
"2009-02-22 01:47:30",651441,8.44,186.8,4.941,1.112,8.22,101.7996,3.892,5.001,27.46,0,109.7,13.51,4.66,148.8
"2009-02-22 01:48:00",651442,9.02,188.6,3.358,0.613,9.26,101.7996,3.891,5.12,27.55,0,109.7,13.5,4.66,150.6
"2009-02-22 01:48:30",651443,8.53,183.8,5.686,1.065,8.44,101.801,3.895,5.118,27.58,0,109.7,13.5,4.66,145.8
"2009-02-22 01:49:00",651444,8.69,185.3,4.948,1.114,8.01,101.7996,3.891,5.057,27.6,0,109.7,13.5,4.66,147.3
"2009-02-22 01:49:30",651445,8.41,182.4,6.183,1.25,6.327,101.8004,3.894,4.884,27.43,0,109.7,13.5,4.66,144.4